Погода в Шапсугской

Россия / Краснодарский край     44°44′45″N   38°04′30″E
темп.,
°C
ветер,
м/с
пор.,
м/с
влажн.,
%
обл.,
%
осадки,
мм/ч
давл.,
гПа
погр.,
м
8 мая, сб
сб800:00+9ю227994 0.0 101729
03:00+9ю2485100 0.0 101670
06:00+11ю2685100 0.0 1015166
09:00+17ю41051100 0.0 1014619
12:00+21ю5103793 0.0 1013801
15:00+21ю611355 0.0 1011823
18:00+18ю412487 0.0 1010557
21:00+13ююз4977100 0.0 1011277
9 мая, вс
вс900:00+12ю2498100 1.3 1010147
03:00+12з2598100 1.9 1011608
06:00+8ссз61296100 1.5 1014925
09:00+7с4995100 5.4 1017962
12:00+9ссз5987100 0.8 10191192
15:00+9ссз5976100 1.1 10211158
18:00+11ссз485711 0.1 10231632
21:00+6зсз22755 0.1 102526
10 мая, пн
пн1000:00+6з127037 0.0 102519
03:00+5ссз238249 0.2 102551
06:00+5сз11830 0.1 102526
09:00+11ссз464965 0.3 10251670
12:00+12ссз5645100 0.5 10242065
15:00+12ссз564449 0.5 10241925
18:00+10ссз3560100 0.0 10231059
21:00+7юз2273100 0.0 102328
11 мая, вт
вт1100:00+8юз2866100 0.0 1021298
03:00+9зюз51076100 0.4 10191015
06:00+8з2785100 0.6 1018361
09:00+7зюз61095100 6.9 10171091
12:00+8юз71195100 2.9 10171203
15:00+8зюз71293100 4.4 1017988
18:00+8юз3995100 1.7 1017583
21:00+8ююз3997100 6.1 1017685
12 мая, ср
ср1200:00+8ююз61187100 1.6 1017693
03:00+9ююз3879100 1.6 1016434
06:00+8ююв118299 0.1 101632
09:00+13ю355799 0.1 10151099
12:00+15ююз244597 0.0 1016937
15:00+16юз224091 0.0 1015950
18:00+15ссв125925 0.0 1015433
21:00+10всв11925 0.0 101510